K5GHS-1 Weather Reports


Display with metric or nautical units.
time (UTC)temp
F
wind
direction
speed
MPH
gust
MPH
rain 1hr
in
rain 24hr
in
rain mn
in
humidity
%
barometer
mb
20260902220831 100 71 1.0 3.0 0.00 0.00 0.00 40 1009.9
20260902220331 101 103 0.0 5.0 0.00 0.00 0.00 38 1010.2
20260902215826 102 84 3.0 6.0 0.00 0.00 0.00 38 1010.3
20260902215321 102 95 1.0 1.0 0.00 0.00 0.00 38 1010.0
20260902214817 101 39 0.0 2.0 0.00 0.00 0.00 39 1010.2
20260902214316 102 42 1.0 6.0 0.00 0.00 0.00 37 1010.4
20260902213811 102 82 0.0 3.0 0.00 0.00 0.00 37 1010.4
20260902213306 102 72 1.0 2.0 0.00 0.00 0.00 38 1010.5
20260902212805 102 128 0.0 1.0 0.00 0.00 0.00 39 1010.4
20260902212305 101 56 1.0 2.0 0.00 0.00 0.00 38 1010.3
20260902211758 101 66 0.0 2.0 0.00 0.00 0.00 39 1010.4
20260902211253 100 95 3.0 5.0 0.00 0.00 0.00 40 1010.7
20260902210748 101 169 1.0 2.0 0.00 0.00 0.00 40 1010.6
20260902210243 100 75 0.0 7.0 0.00 0.00 0.00 40 1010.7
20260902205741 101 75 2.0 6.0 0.00 0.00 0.00 40 1010.7
20260902205236 101 59 1.0 1.0 0.00 0.00 0.00 39 1011.0
20260902204731 100 75 0.0 3.0 0.00 0.00 0.00 41 1010.9
20260902204226 99 85 1.0 2.0 0.00 0.00 0.00 41 1011.1
20260902203716 99 103 1.0 5.0 0.00 0.00 0.00 42 1011.2
20260902203216 100 91 1.0 1.0 0.00 0.00 0.00 41 1011.1
20260902202710 100 93 0.0 5.0 0.00 0.00 0.00 42 1011.3
20260902202207 100 44 1.0 2.0 0.00 0.00 0.00 42 1011.4
20260902201703 100 106 0.0 2.0 0.00 0.00 0.00 41 1011.4
20260902201203 99 52 1.0 1.0 0.00 0.00 0.00 43 1011.4
20260902200657 100 77 0.0 2.0 0.00 0.00 0.00 43 1011.7
20260902200154 100 53 5.0 6.0 0.00 0.00 0.00 42 1011.6
20260902195649 101 40 2.0 5.0 0.00 0.00 0.00 41 1011.9
20260902195148 100 56 1.0 2.0 0.00 0.00 0.00 41 1012.0
20260902194647 100 71 1.0 1.0 0.00 0.00 0.00 41 1012.1
20260902194142 99 62 1.0 5.0 0.00 0.00 0.00 42 1012.1
20260902193639 100 17 1.0 2.0 0.00 0.00 0.00 42 1012.1
20260902193139 99 43 1.0 2.0 0.00 0.00 0.00 44 1012.2
20260902192637 98 135 2.0 6.0 0.00 0.00 0.00 45 1012.3
20260902192137 99 102 0.0 1.0 0.00 0.00 0.00 42 1012.2
20260902191631 99 83 2.0 2.0 0.00 0.00 0.00 43 1012.5
20260902191125 98 75 0.0 3.0 0.00 0.00 0.00 44 1012.5
20260902190621 98 73 0.0 1.0 0.00 0.00 0.00 45 1012.5
20260902190116 97 60 1.0 2.0 0.00 0.00 0.00 46 1012.6
20260902185612 97 65 2.0 5.0 0.00 0.00 0.00 46 1013.1
20260902185108 98 98 2.0 5.0 0.00 0.00 0.00 45 1012.8
20260902184603 98 63 0.0 2.0 0.00 0.00 0.00 46 1013.0
20260902184058 97 72 0.0 2.0 0.00 0.00 0.00 46 1012.8
20260902183554 98 80 0.0 2.0 0.00 0.00 0.00 46 1013.3
20260902183050 97 72 1.0 2.0 0.00 0.00 0.00 47 1013.2
20260902182546 96 56 0.0 3.0 0.00 0.00 0.00 50 1013.3
20260902182042 97 52 1.0 2.0 0.00 0.00 0.00 48 1013.5
20260902181538 96 65 0.0 2.0 0.00 0.00 0.00 49 1013.5
20260902181032 96 82 2.0 5.0 0.00 0.00 0.00 49 1013.6
20260902180527 95 90 1.0 2.0 0.00 0.00 0.00 49 1013.8
20260902180023 95 90 1.0 1.0 0.00 0.00 0.00 51 1013.9
20260902175522 95 108 2.0 6.0 0.00 0.00 0.00 51 1014.0
20260902175019 95 0 0.0 3.0 0.00 0.00 0.00 51 1014.1
20260902174515 95 54 2.0 3.0 0.00 0.00 0.00 50 1014.2
20260902174010 96 48 2.0 3.0 0.00 0.00 0.00 51 1014.3
20260902173510 95 61 1.0 2.0 0.00 0.00 0.00 53 1014.2
20260902173005 94 84 0.0 2.0 0.00 0.00 0.00 54 1014.4
20260902172504 94 93 0.0 2.0 0.00 0.00 0.00 54 1014.5
20260902171959 94 63 1.0 2.0 0.00 0.00 0.00 53 1014.5
20260902171455 94 82 0.0 2.0 0.00 0.00 0.00 53 1014.8
20260902170950 94 64 1.0 5.0 0.00 0.00 0.00 54 1014.8
20260902170450 92 119 2.0 5.0 0.00 0.00 0.00 55 1014.7
20260902165946 92 144 3.0 3.0 0.00 0.00 0.00 55 1014.9
20260902165446 93 99 1.0 3.0 0.00 0.00 0.00 54 1014.9
20260902164940 92 37 1.0 2.0 0.00 0.00 0.00 55 1015.0
20260902164436 94 62 0.0 2.0 0.00 0.00 0.00 56 1014.9
20260902163935 93 96 2.0 3.0 0.00 0.00 0.00 57 1015.0
20260902163430 92 80 2.0 3.0 0.00 0.00 0.00 56 1015.1
20260902162928 92 55 1.0 2.0 0.00 0.00 0.00 58 1015.3
20260902162423 92 83 1.0 2.0 0.00 0.00 0.00 58 1015.2
20260902161923 91 82 1.0 2.0 0.00 0.00 0.00 56 1015.2
20260902161418 91 85 1.0 3.0 0.00 0.00 0.00 57 1015.1
20260902160914 90 82 1.0 6.0 0.00 0.00 0.00 59 1015.2
20260902160410 91 83 2.0 6.0 0.00 0.00 0.00 60 1015.5
20260902155908 91 139 1.0 1.0 0.00 0.00 0.00 60 1015.1
20260902155403 89 107 2.0 3.0 0.00 0.00 0.00 62 1015.2
20260902154856 90 74 3.0 6.0 0.00 0.00 0.00 62 1015.5
20260902154352 89 78 1.0 3.0 0.00 0.00 0.00 63 1015.2
20260902153851 90 80 1.0 2.0 0.00 0.00 0.00 62 1015.2
20260902153350 89 70 0.0 5.0 0.00 0.00 0.00 64 1015.4
20260902152847 89 70 1.0 2.0 0.00 0.00 0.00 64 1015.3
20260902152343 89 52 3.0 5.0 0.00 0.00 0.00 66 1015.4
20260902151838 89 96 3.0 5.0 0.00 0.00 0.00 65 1015.2
20260902151332 88 60 1.0 5.0 0.00 0.00 0.00 66 1015.0
20260902150827 89 70 0.0 2.0 0.00 0.00 0.00 66 1015.1
20260902150324 89 79 1.0 1.0 0.00 0.00 0.00 64 1015.2
20260902145823 89 83 0.0 1.0 0.00 0.00 0.00 66 1014.8
20260902145318 88 71 1.0 2.0 0.00 0.00 0.00 67 1014.9
20260902144814 88 71 0.0 0.0 0.00 0.00 0.00 66 1014.9
20260902144310 88 101 1.0 2.0 0.00 0.00 0.00 66 1014.8
20260902143804 87 27 1.0 3.0 0.00 0.00 0.00 68 1014.9
20260902143259 87 79 0.0 2.0 0.00 0.00 0.00 68 1014.8
20260902142756 86 72 1.0 2.0 0.00 0.00 0.00 68 1014.8
20260902142251 86 49 3.0 3.0 0.00 0.00 0.00 69 1014.8
20260902141750 86 93 1.0 2.0 0.00 0.00 0.00 69 1015.0
20260902141246 85 85 0.0 2.0 0.00 0.00 0.00 71 1015.1
20260902140741 85 73 1.0 3.0 0.00 0.00 0.00 70 1014.9
20260902140236 84 51 2.0 2.0 0.00 0.00 0.00 71 1014.8
20260902135735 84 64 3.0 5.0 0.00 0.00 0.00 71 1015.1
20260902135231 84 111 2.0 3.0 0.00 0.00 0.00 73 1014.8
20260902134730 83 70 1.0 3.0 0.00 0.00 0.00 73 1014.8
20260902134226 82 66 1.0 2.0 0.00 0.00 0.00 75 1014.8
20260902133721 82 74 1.0 2.0 0.00 0.00 0.00 76 1014.9
20260902133220 81 86 1.0 3.0 0.00 0.00 0.00 78 1015.0
20260902132715 81 70 0.0 1.0 0.00 0.00 0.00 78 1014.9
20260902132211 80 66 3.0 3.0 0.00 0.00 0.00 79 1014.9
20260902131706 80 71 2.0 2.0 0.00 0.00 0.00 79 1014.8
20260902131203 80 108 2.0 2.0 0.00 0.00 0.00 79 1014.6
20260902130657 80 86 0.0 2.0 0.00 0.00 0.00 79 1014.7
20260902130153 80 77 0.0 1.0 0.00 0.00 0.00 79 1014.7
20260902125643 80 75 1.0 1.0 0.00 0.00 0.00 80 1014.6
20260902125138 79 89 0.0 3.0 0.00 0.00 0.00 80 1014.5
20260902124635 79 77 2.0 2.0 0.00 0.00 0.00 80 1014.6
20260902124134 79 82 1.0 1.0 0.00 0.00 0.00 81 1014.5
20260902123631 79 77 1.0 3.0 0.00 0.00 0.00 81 1014.5
20260902123130 78 83 1.0 1.0 0.00 0.00 0.00 82 1014.4
20260902122625 78 70 0.0 1.0 0.00 0.00 0.00 82 1014.4
20260902122121 78 77 0.0 1.0 0.00 0.00 0.00 82 1014.4
20260902121621 78 81 1.0 1.0 0.00 0.00 0.00 83 1014.3
20260902121115 79 74 0.0 1.0 0.00 0.00 0.00 82 1014.5
20260902120612 79 80 0.0 1.0 0.00 0.00 0.00 82 1014.2
20260902120108 79 85 1.0 2.0 0.00 0.00 0.00 83 1014.3
20260902115603 79 88 0.0 2.0 0.00 0.00 0.00 82 1014.1
20260902115059 79 75 1.0 1.0 0.00 0.00 0.00 82 1014.4
20260902114555 79 70 1.0 2.0 0.00 0.00 0.00 81 1014.3
20260902114054 79 73 0.0 0.0 0.00 0.00 0.00 81 1014.3
20260902113550 79 76 1.0 1.0 0.00 0.00 0.00 80 1014.1
20260902113045 79 69 0.0 1.0 0.00 0.00 0.00 80 1014.3
20260902112540 79 74 0.0 0.0 0.00 0.00 0.00 79 1014.1
20260902112037 79 71 0.0 0.0 0.00 0.00 0.00 78 1014.1
20260902111533 79 70 0.0 0.0 0.00 0.00 0.00 77 1014.2
20260902111028 79 69 0.0 0.0 0.00 0.00 0.00 77 1014.2
20260902110524 79 69 0.0 1.0 0.00 0.00 0.00 77 1014.4
20260902110020 79 70 1.0 1.0 0.00 0.00 0.00 78 1014.3
20260902105519 79 73 0.0 0.0 0.00 0.00 0.00 77 1014.5
20260902105014 80 71 0.0 0.0 0.00 0.00 0.00 76 1014.4
20260902104510 80 69 0.0 0.0 0.00 0.00 0.00 76 1014.3
20260902104004 80 68 0.0 1.0 0.00 0.00 0.00 76 1014.2
20260902103500 80 72 0.0 0.0 0.00 0.00 0.00 75 1014.1
20260902102955 80 72 0.0 0.0 0.00 0.00 0.00 75 1014.3
20260902102451 80 80 0.0 0.0 0.00 0.00 0.00 74 1014.4
20260902101948 80 74 0.0 0.0 0.00 0.00 0.00 74 1014.2
20260902101448 80 73 0.0 0.0 0.00 0.00 0.00 74 1014.0
20260902100946 81 72 0.0 0.0 0.00 0.00 0.00 74 1014.2
20260902100442 81 74 0.0 0.0 0.00 0.00 0.00 74 1014.2
20260902095942 81 76 0.0 0.0 0.00 0.00 0.00 74 1014.3
20260902095436 80 81 0.0 0.0 0.00 0.00 0.00 75 1014.1
20260902094935 80 71 0.0 0.0 0.00 0.00 0.00 75 1014.1
20260902094432 80 71 0.0 0.0 0.00 0.00 0.00 75 1014.1
20260902093926 80 70 0.0 0.0 0.00 0.00 0.00 74 1014.1
20260902093422 81 70 0.0 0.0 0.00 0.00 0.00 74 1014.1
20260902092920 81 78 0.0 0.0 0.00 0.00 0.00 74 1014.1
20260902092416 81 75 0.0 0.0 0.00 0.00 0.00 74 1013.9
20260902091911 81 73 0.0 0.0 0.00 0.00 0.00 74 1014.0
20260902091406 81 74 0.0 0.0 0.00 0.00 0.00 74 1013.9
20260902090903 81 71 0.0 0.0 0.00 0.00 0.00 74 1014.2
20260902090402 81 71 0.0 0.0 0.00 0.00 0.00 73 1014.1
20260902085901 81 71 0.0 0.0 0.00 0.00 0.00 73 1014.0
20260902085356 82 74 0.0 0.0 0.00 0.00 0.00 72 1013.9
20260902084852 82 73 0.0 0.0 0.00 0.00 0.00 72 1014.0
20260902084348 82 76 0.0 0.0 0.00 0.00 0.00 72 1014.0
20260902083843 82 72 0.0 0.0 0.00 0.00 0.00 71 1014.0
20260902083338 82 75 0.0 0.0 0.00 0.00 0.00 71 1013.9
20260902082833 82 73 0.0 0.0 0.00 0.00 0.00 71 1013.9
20260902082329 83 74 0.0 0.0 0.00 0.00 0.00 70 1014.0
20260902081825 83 74 0.0 0.0 0.00 0.00 0.00 70 1014.0
20260902081320 83 95 0.0 0.0 0.00 0.00 0.00 70 1014.0
20260902080814 83 76 0.0 1.0 0.00 0.00 0.00 70 1014.0
20260902080312 83 72 0.0 0.0 0.00 0.00 0.00 69 1014.1
20260902075811 83 77 0.0 1.0 0.00 0.00 0.00 69 1013.9
20260902075307 83 80 2.0 2.0 0.00 0.00 0.00 69 1013.9
20260902074802 84 77 0.0 2.0 0.00 0.00 0.00 68 1014.0
20260902074258 84 84 0.0 1.0 0.00 0.00 0.00 68 1014.1
20260902073753 84 77 0.0 1.0 0.00 0.00 0.00 68 1014.0
20260902073249 84 84 0.0 0.0 0.00 0.00 0.00 68 1014.1
20260902072744 84 79 0.0 1.0 0.00 0.00 0.00 68 1014.1
20260902072240 84 74 0.0 0.0 0.00 0.00 0.00 68 1014.1
20260902071736 84 77 0.0 0.0 0.00 0.00 0.00 68 1014.0
20260902071231 84 118 1.0 1.0 0.00 0.00 0.00 68 1014.1
20260902070728 84 76 0.0 0.0 0.00 0.00 0.00 68 1013.9
20260902070227 84 75 0.0 0.0 0.00 0.00 0.00 68 1014.0
20260902065726 84 77 0.0 1.0 0.00 0.00 0.00 68 1014.2
20260902065221 84 77 0.0 2.0 0.00 0.00 0.00 68 1014.0
20260902064717 84 82 0.0 1.0 0.00 0.00 0.00 68 1014.1
20260902064212 85 84 1.0 1.0 0.00 0.00 0.00 68 1013.9
20260902063708 85 81 1.0 2.0 0.00 0.00 0.00 68 1014.0
20260902063207 85 81 0.0 1.0 0.00 0.00 0.00 67 1013.8
20260902062702 85 78 0.0 2.0 0.00 0.00 0.00 67 1013.9
20260902062157 85 76 0.0 0.0 0.00 0.00 0.00 67 1013.9
20260902061655 85 89 0.0 0.0 0.00 0.00 0.00 67 1013.8
20260902061151 85 79 2.0 3.0 0.00 0.00 0.00 67 1013.9
20260902060648 86 81 0.0 1.0 0.00 0.00 0.00 66 1013.9
20260902060144 86 102 0.0 2.0 0.00 0.00 0.00 66 1013.8
20260902055639 86 105 1.0 1.0 0.00 0.00 0.00 66 1013.9
20260902055135 86 110 1.0 2.0 0.00 0.00 0.00 65 1014.1
20260902054630 86 90 1.0 1.0 0.00 0.00 0.00 65 1014.0
20260902054126 86 85 0.0 1.0 0.00 0.00 0.00 64 1013.8
20260902053620 87 109 0.0 2.0 0.00 0.00 0.00 64 1014.0
20260902053115 87 77 0.0 1.0 0.00 0.00 0.00 64 1013.9
20260902052609 87 87 1.0 2.0 0.00 0.00 0.00 63 1013.9
20260902052105 87 74 0.0 1.0 0.00 0.00 0.00 63 1013.9
20260902051604 87 124 2.0 3.0 0.00 0.00 0.00 63 1014.1
20260902051103 87 95 1.0 5.0 0.00 0.00 0.00 63 1013.7
20260902050558 87 75 0.0 1.0 0.00 0.00 0.00 62 1013.6
20260902050053 87 104 1.0 5.0 0.00 0.00 0.00 61 1013.5
20260902045548 88 83 1.0 1.0 0.00 0.00 0.00 61 1013.6
20260902045044 88 92 0.0 1.0 0.00 0.00 0.00 61 1013.9
20260902044539 88 110 1.0 2.0 0.00 0.00 0.00 61 1013.9
20260902044035 88 74 0.0 0.0 0.00 0.00 0.00 60 1013.6
20260902043530 88 111 1.0 5.0 0.00 0.00 0.00 60 1013.7
20260902043025 89 86 1.0 5.0 0.00 0.00 0.00 58 1013.6
20260902042524 88 52 2.0 6.0 0.00 0.00 0.00 58 1013.7
20260902042019 89 76 0.0 6.0 0.00 0.00 0.00 58 1013.4
20260902041514 89 71 0.0 3.0 0.00 0.00 0.00 58 1013.8
20260902041008 89 77 1.0 5.0 0.00 0.00 0.00 57 1013.7
20260902040503 89 78 1.0 3.0 0.00 0.00 0.00 57 1013.4
20260902040002 89 116 3.0 6.0 0.00 0.00 0.00 58 1013.2
20260902035456 89 71 1.0 2.0 0.00 0.00 0.00 59 1013.4
20260902034950 89 78 0.0 2.0 0.00 0.00 0.00 58 1013.4
20260902034445 89 75 0.0 0.0 0.00 0.00 0.00 58 1013.2
20260902033944 89 75 0.0 0.0 0.00 0.00 0.00 57 1013.4
20260902033438 89 85 0.0 0.0 0.00 0.00 0.00 57 1013.1
20260902032937 89 72 0.0 0.0 0.00 0.00 0.00 56 1013.1
20260902032432 89 75 0.0 2.0 0.00 0.00 0.00 56 1013.4
20260902031927 89 74 0.0 0.0 0.00 0.00 0.00 56 1013.2
20260902031422 90 70 0.0 0.0 0.00 0.00 0.00 56 1013.1
20260902030918 89 79 0.0 1.0 0.00 0.00 0.00 56 1013.0
20260902030413 90 78 0.0 0.0 0.00 0.00 0.00 56 1013.1
20260902025911 90 76 0.0 0.0 0.00 0.00 0.00 56 1012.8
20260902025407 90 73 0.0 1.0 0.00 0.00 0.00 56 1013.0
20260902024902 90 70 0.0 1.0 0.00 0.00 0.00 55 1013.1
20260902024357 90 76 0.0 1.0 0.00 0.00 0.00 55 1012.6
20260902023853 90 76 0.0 1.0 0.00 0.00 0.00 55 1012.7
20260902023348 90 76 0.0 0.0 0.00 0.00 0.00 55 1012.7
20260902022847 91 72 0.0 0.0 0.00 0.00 0.00 55 1012.6
20260902022342 91 68 0.0 1.0 0.00 0.00 0.00 55 1012.4
20260902021838 91 71 0.0 1.0 0.00 0.00 0.00 54 1012.3
20260902021333 91 75 0.0 0.0 0.00 0.00 0.00 53 1012.3
20260902020828 92 75 0.0 3.0 0.00 0.00 0.00 52 1012.2
20260902020325 92 54 1.0 5.0 0.00 0.00 0.00 52 1012.2
20260902015820 92 47 0.0 1.0 0.00 0.00 0.00 50 1012.3
20260902015316 92 87 0.0 1.0 0.00 0.00 0.00 49 1012.1
20260902014811 92 70 0.0 1.0 0.00 0.00 0.00 49 1011.8
20260902014308 92 76 0.0 0.0 0.00 0.00 0.00 49 1011.8
20260902013806 92 76 1.0 1.0 0.00 0.00 0.00 50 1011.6
20260902013302 92 74 0.0 0.0 0.00 0.00 0.00 49 1011.4
20260902012757 92 77 0.0 0.0 0.00 0.00 0.00 49 1011.4
20260902012253 92 76 0.0 1.0 0.00 0.00 0.00 49 1011.4
20260902011749 92 77 0.0 0.0 0.00 0.00 0.00 49 1011.6
20260902011248 93 74 0.0 0.0 0.00 0.00 0.00 48 1011.6
20260902010741 93 75 0.0 0.0 0.00 0.00 0.00 48 1011.4
20260902010237 93 74 0.0 0.0 0.00 0.00 0.00 48 1011.4
20260902005736 94 74 0.0 0.0 0.00 0.00 0.00 47 1011.3
20260902005231 94 76 0.0 1.0 0.00 0.00 0.00 46 1011.2
20260902004725 94 72 0.0 0.0 0.00 0.00 0.00 46 1011.2
20260902004220 94 81 0.0 1.0 0.00 0.00 0.00 45 1011.4
20260902003715 95 83 0.0 2.0 0.00 0.00 0.00 45 1011.5
20260902003211 95 84 0.0 0.0 0.00 0.00 0.00 45 1011.6
20260902002706 95 75 0.0 1.0 0.00 0.00 0.00 44 1011.6
20260902002200 95 76 0.0 1.0 0.00 0.00 0.00 44 1011.5
20260902001655 96 56 2.0 3.0 0.00 0.00 0.00 43 1011.7
20260902001150 96 77 0.0 1.0 0.00 0.00 0.00 43 1011.6
20260902000645 96 74 0.0 5.0 0.00 0.00 0.00 43 1011.8
20260902000140 96 68 1.0 2.0 0.00 0.00 0.00 43 1011.8
20260901235640 96 72 0.0 5.0 0.00 0.00 0.00 44 1011.8
20260901235135 96 80 1.0 1.0 0.00 0.00 0.00 44 1011.7
20260901234634 96 71 0.0 2.0 0.00 0.00 0.00 43 1011.7
20260901234130 96 74 0.0 2.0 0.00 0.00 0.00 43 1011.7
20260901233624 96 73 1.0 2.0 0.00 0.00 0.00 43 1011.8
20260901233121 97 92 0.0 1.0 0.00 0.00 0.00 42 1011.8
20260901232620 97 105 1.0 3.0 0.00 0.00 0.00 43 1011.7
20260901232115 97 86 1.0 2.0 0.00 0.00 0.00 42 1012.0
20260901231613 98 121 1.0 1.0 0.00 0.00 0.00 42 1011.9
20260901231108 98 127 2.0 3.0 0.00 0.00 0.00 41 1011.9
20260901230604 99 127 1.0 7.0 0.00 0.00 0.00 40 1011.8
20260901230103 100 80 1.0 5.0 0.00 0.00 0.00 40 1011.9
20260901225559 100 96 0.0 3.0 0.00 0.00 0.00 40 1011.9
20260901225058 100 36 2.0 3.0 0.00 0.00 0.00 39 1011.8
20260901224554 100 70 3.0 3.0 0.00 0.00 0.00 39 1012.0
20260901224050 101 96 0.0 1.0 0.00 0.00 0.00 38 1011.9
20260901223546 99 95 1.0 2.0 0.00 0.00 0.00 39 1011.7
20260901223041 101 94 0.0 1.0 0.00 0.00 0.00 38 1011.7
20260901222537 100 61 3.0 5.0 0.00 0.00 0.00 38 1011.8
20260901222033 100 118 2.0 6.0 0.00 0.00 0.00 39 1011.9
20260901221529 101 96 2.0 3.0 0.00 0.00 0.00 38 1011.8